User: anonymous   Login
Location: Colonia Mina de C?rbuni
(46.1667°N, 22.7167°E)
Time: 19:07:48
(UTC+00:00)
Language:

Cosmos 1741 Rocket - Orbit

View from above orbital plane
View from above orbital plane
View from above satellite
View from above satellite

Ground track
Ground track

The orbit data is extracted from the following two-line orbital elements,

1 16682U 86030B   24106.61656267  .00000478  00000-0  17159-3 0  9997
2 16682  74.0255 324.2526 0013699  55.7119   6.6861 14.36541604988925
Epoch (UTC): 15 April 2024 14:47:51
Eccentricity: 0.0013699
inclination: 74.0255°
perigee height: 760 km
apogee height: 780 km
right ascension of ascending node: 324.2526°
argument of perigee: 55.7119°
revolutions per day: 14.36541604
mean anomaly at epoch: 6.6861°
orbit number at epoch: 98892

The dashed part of the orbit path shows where the satellite is in the earth's shadow,  

DLR